Location: Coupvray
(48.8929°N, 2.7967°E)
Time: 20:35:43
(UTC+00:00)

Lacrosse 5 - Pass Details

Date: 14 July 2020
Orbit: 717 x 720 km, 57.0° (Epoch: 11 August)

Event Time Altitude Azimuth Distance (km) Brightness Sun altitude
Exits shadow 00:10:40 38° 208° (SSW) 1,093 2.3 -19.4°
Maximum altitude 00:12:32 67° 139° (SE) 779 1.8 -19.4°
Drops below altitude 10° 00:17:34 10° 58° (ENE) 2,206 4.9 -19.3°
Sets 00:19:58 0° 56° (NE) 3,129 5.8 -19.2°
